User: anonymous   Login
Location: Contre
(49.7477°N, 2.0963°E)
Time: 04:26:15
(UTC+00:00)
Language:

CZ-2D DEB - Orbit

View from above orbital plane
View from above orbital plane
View from above satellite
View from above satellite

Ground track
Ground track

The orbit data is extracted from the following two-line orbital elements,

1 44605U 16068E   24060.60705815  .00000430  00000-0  31883-3 0  9997
2 44605  98.4185 191.0112 0233097  48.7068 313.3906 13.87527012364776
Epoch (UTC): 29 February 2024 14:34:09
Eccentricity: 0.0233097
inclination: 98.4185°
perigee height: 767 km
apogee height: 1108 km
right ascension of ascending node: 191.0112°
argument of perigee: 48.7068°
revolutions per day: 13.87527012
mean anomaly at epoch: 313.3906°
orbit number at epoch: 36477

The dashed part of the orbit path shows where the satellite is in the earth's shadow,  

DLR